Stuttgart, AR

1:32 PM CDT on September 23, 2017 (GMT -0500)
Stuttgart Municipal

Weather History for KSGT - December, 2011

Change the Weather History Date:

Friday, December 23, 2011

  Actual Average Record
Temperature  
Mean Temperature 42 °F -  
Max Temperature 44 °F 46 °F 75 °F (2015)
Min Temperature 39 °F 31 °F 17 °F (2004)
Degree Days  
Heating Degree Days 24    
Moisture  
Dew Point 33 °F    
Average Humidity 71    
Maximum Humidity 81    
Minimum Humidity 61    
Precipitation  
Precipitation 0.00 in - - ()
Sea Level Pressure  
Sea Level Pressure 30.38 in    
Wind  
Wind Speed - (North)    
Max Wind Speed -    
Max Gust Speed -    
Visibility 10 miles    
Events      
Averages and records for this station are not official NWS values.
T = Trace of Precipitation, MM = Missing Value Source: NWS Daily Summary

Daily Weather History Graph

Daily Weather History Graph

Search for Another Location

Airport or City:

Trip Planner

Search our weather history database for the weather conditions in past years. The results will help you decide how hot, cold, wet, or windy it might be!

Date:

Astronomy

Dec. 23, 2011 Rise Set
Actual Time 7:10 AM CST 5:00 PM CST
Civil Twilight 6:42 AM CST 5:28 PM CST
Nautical Twilight 6:10 AM CST 6:00 PM CST
Astronomical Twilight 5:39 AM CST 6:30 PM CST
Moon 5:59 AM CST 4:09 PM CST
Length of Visible Light 10h 46m
Length of Day
9h 50m
Waning Crescent, 1% of the Moon is Illuminated
Dec 23
Waning Crescent
Dec 24
New
Jan 1
First Quarter
Jan 9
Full
Jan 16
Last Quarter

Hourly Weather History & Observations

Time (CST) Temp. Dew Point Humidity Pressure Visibility Wind Dir Wind Speed Gust Speed Precip Events Conditions
12:15 AM 44.6 °F 37.4 °F 76% 30.26 in 10.0 mi North - - N/A   Mostly Cloudy
12:35 AM 44.6 °F 37.4 °F 76% 30.26 in 10.0 mi North - - N/A   Overcast
12:55 AM 44.6 °F 35.6 °F 71% 30.26 in 10.0 mi North - - N/A   Overcast
1:15 AM 42.8 °F 35.6 °F 76% 30.27 in 10.0 mi North - - N/A   Overcast
1:35 AM 42.8 °F 35.6 °F 76% 30.27 in 10.0 mi North - - N/A   Overcast
1:55 AM 42.8 °F 35.6 °F 76% 30.28 in 10.0 mi North - - N/A   Overcast
2:35 AM 42.8 °F 35.6 °F 76% 30.29 in 10.0 mi North - - N/A   Overcast
2:55 AM 42.8 °F 35.6 °F 76% 30.30 in 10.0 mi North - - N/A   Overcast
3:15 AM 42.8 °F 35.6 °F 76% 30.30 in 10.0 mi North - - N/A   Overcast
3:35 AM 42.8 °F 35.6 °F 76% 30.30 in 10.0 mi North - - N/A   Overcast
3:55 AM 42.8 °F 35.6 °F 76% 30.31 in 10.0 mi North - - N/A   Overcast
4:15 AM 42.8 °F 35.6 °F 76% 30.31 in 10.0 mi North - - N/A   Overcast
4:35 AM 42.8 °F 35.6 °F 76% 30.32 in 10.0 mi North - - N/A   Overcast
4:55 AM 42.8 °F 35.6 °F 76% 30.33 in 10.0 mi North - - N/A   Overcast
5:15 AM 42.8 °F 35.6 °F 76% 30.33 in 10.0 mi North - - N/A   Overcast
5:35 AM 41.0 °F 33.8 °F 76% 30.34 in 10.0 mi North - - N/A   Overcast
5:55 AM 41.0 °F 33.8 °F 76% 30.34 in 9.0 mi North - - N/A   Overcast
6:15 AM 41.0 °F 33.8 °F 76% 30.36 in 10.0 mi North - - N/A   Overcast
6:35 AM 39.2 °F 33.8 °F 81% 30.36 in 8.0 mi North - - N/A   Overcast
6:55 AM 39.2 °F 33.8 °F 81% 30.37 in 10.0 mi North - - N/A   Overcast
7:55 AM 39.2 °F 32.0 °F 75% 30.40 in 9.0 mi North - - N/A   Overcast
8:15 AM 39.2 °F 32.0 °F 75% 30.41 in 10.0 mi North - - N/A   Overcast
8:35 AM 39.2 °F 33.8 °F 81% 30.42 in 10.0 mi North - - N/A   Overcast
8:55 AM 41.0 °F 32.0 °F 70% 30.42 in 10.0 mi North - - N/A   Overcast
9:15 AM 41.0 °F 30.2 °F 65% 30.43 in 10.0 mi North - - N/A   Overcast
9:35 AM 41.0 °F 32.0 °F 70% 30.44 in 10.0 mi North - - N/A   Overcast
9:55 AM 41.0 °F 30.2 °F 65% 30.45 in 10.0 mi North - - N/A   Overcast
10:15 AM 41.0 °F 30.2 °F 65% 30.45 in 10.0 mi North - - N/A   Overcast
10:35 AM 41.0 °F 32.0 °F 70% 30.45 in 10.0 mi North - - N/A   Overcast
10:55 AM 42.8 °F 32.0 °F 66% 30.45 in 10.0 mi North - - N/A   Overcast
11:15 AM 42.8 °F 30.2 °F 61% 30.43 in 10.0 mi North - - N/A   Overcast
11:55 AM 42.8 °F 32.0 °F 66% 30.41 in 10.0 mi North - - N/A   Overcast
12:15 PM 42.8 °F 32.0 °F 66% 30.40 in 10.0 mi North - - N/A   Overcast
12:55 PM 42.8 °F 32.0 °F 66% 30.39 in 10.0 mi North - - N/A   Overcast
1:15 PM 42.8 °F 33.8 °F 70% 30.38 in 10.0 mi North - - N/A   Overcast
1:35 PM 44.6 °F 32.0 °F 61% 30.38 in 10.0 mi North - - N/A   Overcast
1:55 PM 42.8 °F 32.0 °F 66% 30.38 in 10.0 mi North - - N/A   Overcast
2:15 PM 42.8 °F 33.8 °F 70% 30.39 in 10.0 mi North - - N/A   Overcast
2:35 PM 42.8 °F 33.8 °F 70% 30.39 in 10.0 mi North - - N/A   Overcast
2:55 PM 42.8 °F 32.0 °F 66% 30.39 in 10.0 mi North - - N/A   Overcast
3:15 PM 42.8 °F 32.0 °F 66% 30.40 in 10.0 mi North - - N/A   Overcast
3:35 PM 42.8 °F 32.0 °F 66% 30.40 in 10.0 mi North - - N/A   Overcast
3:55 PM 42.8 °F 32.0 °F 66% 30.40 in 10.0 mi North - - N/A   Overcast
4:15 PM 42.8 °F 32.0 °F 66% 30.40 in 10.0 mi North - - N/A   Overcast
4:35 PM 42.8 °F 32.0 °F 66% 30.40 in 10.0 mi North - - N/A   Overcast
4:55 PM 42.8 °F 32.0 °F 66% 30.41 in 10.0 mi North - - N/A   Overcast
5:15 PM 42.8 °F 32.0 °F 66% 30.41 in 10.0 mi North - - N/A   Overcast
5:35 PM 41.0 °F 33.8 °F 76% 30.42 in 10.0 mi North - - N/A   Overcast
5:55 PM 41.0 °F 33.8 °F 76% 30.42 in 10.0 mi North - - N/A   Overcast
6:15 PM 41.0 °F 32.0 °F 70% 30.42 in 10.0 mi North - - N/A   Overcast
6:35 PM 41.0 °F 32.0 °F 70% 30.42 in 10.0 mi North - - N/A   Overcast
6:55 PM 41.0 °F 32.0 °F 70% 30.42 in 10.0 mi North - - N/A   Overcast
7:15 PM 41.0 °F 30.2 °F 65% 30.42 in 10.0 mi North - - N/A   Overcast
7:35 PM 41.0 °F 30.2 °F 65% 30.42 in 10.0 mi North - - N/A   Overcast
8:35 PM 41.0 °F 30.2 °F 65% 30.44 in 10.0 mi North - - N/A   Overcast
8:55 PM 41.0 °F 30.2 °F 65% 30.44 in 10.0 mi North - - N/A   Overcast
9:15 PM 41.0 °F 30.2 °F 65% 30.44 in 10.0 mi North - - N/A   Overcast
9:35 PM 39.2 °F 30.2 °F 70% 30.44 in 10.0 mi North - - N/A   Overcast
9:55 PM 39.2 °F 28.4 °F 65% 30.44 in 10.0 mi North - - N/A   Overcast
10:15 PM 39.2 °F 30.2 °F 70% 30.44 in 10.0 mi North - - N/A   Overcast
10:35 PM 39.2 °F 30.2 °F 70% 30.44 in 10.0 mi North - - N/A   Overcast
10:55 PM 39.2 °F 30.2 °F 70% 30.44 in 10.0 mi North - - N/A   Overcast
11:15 PM 39.2 °F 30.2 °F 70% 30.45 in 10.0 mi North - - N/A   Overcast
11:35 PM 39.2 °F 30.2 °F 70% 30.45 in 10.0 mi North - - N/A   Overcast
11:55 PM 39.2 °F 28.4 °F 65% 30.44 in 10.0 mi North - - N/A   Overcast